カタログに戻る

MINOTAUR R/B

運用中SSO
NORAD 28637·ROCKET BODY·🇺🇸 United States

打ち上げ Apr 11, 2005 から Vandenberg Space Force Base

Loading…

次のパス (今後24時間)

TLE

最新Source: Space-Track

元期: Sep 14, 2026, 08:52 UTC

1 28637U 05011B   26257.36948300  .00000008  00000-0  28006-4 0  9996
2 28637  98.7783 251.6475 0013738  31.9081 328.2920 14.12268133103959

AllMySatでMINOTAUR R/Bをリアルタイム追跡

Download on the App Store